Location: Bremen
(53.0793°N, 8.8017°E)
Time: 11:18:04
(UTC+02:00)

Transit 2A Rocket - Pass Details

Date: 22 June 2024
Orbit: 582 x 910 km, 66.7° (Epoch: 19 July)

Event Time Altitude Azimuth Distance (km) Brightness Sun altitude
Rises 23:04:40 0° 239° (WSW) 3,174 8.2 -7.5°
Reaches altitude 10° 23:07:01 10° 244° (WSW) 2,305 7.6 -7.7°
Maximum altitude 23:12:12 51° 321° (NW) 1,028 6.2 -8.1°
Drops below altitude 10° 23:17:52 10° 36° (NE) 2,516 8.0 -8.5°
Sets 23:20:32 0° 42° (NE) 3,492 8.7 -8.7°
